{"data":{"norad_id":62162,"epoch":"2026-09-20T02:29:31.194528Z","epoch_age_seconds":215743,"freshness":"STALE","line1":"1 62162U 24224Z   26263.10383327  .00011309  00000+0  41968-3 0  9991","line2":"2 62162  43.0003 143.5712 0001182 275.4557  84.6159 15.27593419102168","mean_motion":15.27593419,"eccentricity":0.0001182,"inclination_deg":43.0003,"raan_deg":143.5712,"arg_perigee_deg":275.4557,"mean_anomaly_deg":84.6159,"bstar":0.00041968,"rev_number":10216,"period_min":94.265920636308,"perigee_km":482.19792757318,"apogee_km":483.81990246749,"semimajor_km":6861.1459150203,"source":"CELESTRAK","updated_at":"2026-09-22T09:00:49.534084Z"}}